Regional Weather Roundup
Issued by NWS

Home | Current Version | Previous Version | Text Only | Print | Product List | Glossary On
Versions: 1 2 3 4 5 6 7 8 9 10 11 12 13 14 15 16 17 18 19 20 21 22 23 24 25 26 27 28 29 30 31 32 33 34 35 36 37 38 39 40 41 42 43 44 45 46 47 48 49 50
000
ASUS43 KMKX 300759
RWRWI

WISCONSIN REGIONAL WEATHER ROUNDUP
NATIONAL WEATHER SERVICE MILWAUKEE/SULLIVAN WI
200 AM CST FRI JAN 30 2015

NOTE: "FAIR" INDICATES FEW OR NO CLOUDS BELOW 12,000 FEET WITH NO
SIGNIFICANT WEATHER AND/OR OBSTRUCTIONS TO VISIBILITY.

WIZ001-002-006>008-014>016-023>028-300900-
NORTHWEST WISCONSIN

CITY           SKY/WX    TMP DP  RH WIND       PRES   REMARKS
SUPERIOR ARPT  PTCLDY     5  -1  77 W6        30.55R WCI  -6
ASHLAND        CLOUDY    13   5  70 N7        30.51R WCI   3
HAYWARD        CLOUDY     6   0  76 W5        30.49R WCI  -3
SIREN          PTCLDY     5  -1  75 NW6       30.55R WCI  -6
CUMBERLAND     PTCLDY     5   0  78 NW5       30.50R WCI  -4
RICE LAKE      PTCLDY     6   0  79 W3        30.52R
CHETEK         PTCLDY     6   0  78 CALM      30.51R
LADYSMITH      CLOUDY    10   4  75 NW7       30.48R WCI   0
EAU CLAIRE     NOT AVBL
MENOMONIE      CLEAR     11   2  67 W7        30.54R WCI   0
NEW RICHMOND   PTCLDY     7   2  80 NW5       30.54S WCI  -1
OSCEOLA        PTCLDY    10   4  76 NW6       30.58R WCI   1
$$

WIZ003>005-009-010-017-018-300900-
NORTH CENTRAL WISCONSIN

CITY           SKY/WX    TMP DP  RH WIND       PRES   REMARKS
MANITOWISH WTR CLOUDY    11   5  76 N6        30.37S WCI   2
ARBOR VITAE    CLOUDY    14   7  75 N12       30.37R WCI   0
WOODRUFF       CLOUDY    14   7  75 N12       30.37R WCI   0
RHINELANDER    CLOUDY    12   3  67 N7        30.37R WCI   1
EAGLE RIVER    CLOUDY    11   2  67 NW14G20   30.36R WCI  -4
LAND O LAKES   CLOUDY    11   5  76 NW8       30.36R WCI   0
PHILLIPS       CLOUDY    12   4  70 NW5       30.40R WCI   4
TOMAHAWK       CLOUDY    13   5  69 NW6       30.39R WCI   4
MEDFORD        CLOUDY    13   6  72 NW9       30.40R WCI   1
MERRILL        CLOUDY    15   5  64 N6        30.39S WCI   6
$$

WIZ029-030-035-036-043>047-300900-
CENTRAL WISCONSIN

CITY           SKY/WX    TMP DP  RH WIND       PRES   REMARKS
WAUSAU         CLOUDY    16   4  59 NW10      30.40R WCI   4
MOSINEE        CLOUDY    18  10  73 N10       30.41R WCI   6
MARSHFIELD     CLOUDY    14   4  64 NW10      30.42R WCI   1
STEVENS POINT  PTCLDY    15   4  63 N3        30.42R
WAUPACA        CLOUDY    21   6  53 N6        30.42R WCI  13
WAUTOMA        NOT AVBL
WISC RAPIDS    CLOUDY    18   6  59 N7        30.44R WCI   9
CAMP DOUGLAS   NOT AVBL
$$

WIZ011>013-019>022-031-037>040-048>050-300900-
NORTHEAST WISCONSIN

CITY           SKY/WX    TMP DP  RH WIND       PRES   REMARKS
ANTIGO         CLOUDY    13   5  68 N12       30.36R WCI   0
SHAWANO        CLOUDY    21   7  54 N10       30.41R WCI  10
OCONTO         CLOUDY    17   6  63 MISG      30.41R
STURGEON BAY   CLOUDY    16   3  57 N18       30.41R WCI  -1
GREEN BAY      MOCLDY    18   8  65 NW6       30.41R WCI  10
MANITOWOC      NOT AVBL
APPLETON       CLOUDY    19  10  68 NW10      30.40R WCI   8
CLINTONVILLE   CLOUDY    21   9  58 NW8       30.41R WCI  12
OSHKOSH        CLOUDY    20   8  60 NW13      30.40R WCI   7
$$

WIZ032>034-041-042-053>061-300900-
SOUTHWEST WISCONSIN

CITY           SKY/WX    TMP DP  RH WIND       PRES   REMARKS
LA CROSSE      CLEAR     16   7  67 NW9       30.52R WCI   4
SPARTA         PTCLDY    16   7  68 NW9       30.49R WCI   4
VIROQUA        CLEAR     15   8  73 N6        30.44R WCI   6
BOSCOBEL       CLOUDY    22   9  57 NW9       30.48R WCI  12
PRAIRIE DU CHI CLEAR     20  10  66 NW5       30.49R WCI  14
PLATTEVILLE    CLEAR     18  11  76 N7        30.43R WCI   9
$$

WIZ056-057-062-063-064-067-068-300900-
SOUTH CENTRAL WISCONSIN

CITY           SKY/WX    TMP DP  RH WIND       PRES   REMARKS
REEDSBURG      CLEAR     18   7  62 NW7       30.44R WCI   9
BARABOO/DELLS  CLEAR     18   7  62 NW9       30.42R WCI   7
LONE ROCK      NOT AVBL
MINERAL POINT  CLOUDY    23  12  63 NW8       30.41R WCI  14
MADISON        CLEAR     20   9  62 NW8       30.42R WCI  10
MIDDLETON      CLEAR     22  10  58 N10       30.42R WCI  11
WATERTOWN      CLOUDY    23  11  59 N8G16     30.39R WCI  14
MONROE         FLURRIES  25  19  80 N10G17    30.39R WCI  15
JANESVILLE     MOCLDY    27  19  74 N3        30.40R
$$

WIZ051-052-058>065-066-070>072-300900-
SOUTHEAST WISCONSIN

CITY           SKY/WX    TMP DP  RH WIND       PRES   REMARKS
MILWAUKEE      MOCLDY    25  11  55 NW16      30.38R WCI  12
WAUKESHA       CLOUDY    21   9  58 N9        30.38R WCI  11
MILWAUKEE/TIMM CLOUDY    23  12  63 N14       30.38R WCI  11
RACINE         CLOUDY    25   8  48 NW10      30.39R WCI  15
BURLINGTON     CLOUDY    22   9  57 N8        30.38R WCI  13
KENOSHA        CLOUDY    24   9  52 N12       30.38R WCI  13
FOND DU LAC    PTCLDY    17   6  62 NW9       30.40R WCI   6
SHEBOYGAN      FLURRIES  20  10  65 N10       30.39R WCI   9
WEST BEND      PTCLDY    21  10  63 NW9G20    30.37R WCI  11
JUNEAU         CLOUDY    22   9  57 N14       30.40R WCI   9
$$

LSZ147-162-300900-
LAKE SUPERIOR

STATION/POSITION TIME  TEMP    WIND        PRES    WAVE
                       AIR SEA DIR/SP/G            HT/PER
                 (UTC) (F)     (DEG/KT/KT) (MB)    (FT/S)
DEVILS ISLAND    0700   13     350/  9/ 11 1034.5R
PORT WING        0740   15     300/  7/ 12 1033.2R
SAXON HARBOR     0700   16     330/ 11/ 14 1032.2S
$$

LMZ867-665-643>646-300900-
LAKE MICHIGAN

STATION/POSITION TIME  TEMP    WIND        PRES    WAVE
                       AIR SEA DIR/SP/G            HT/PER
                 (UTC) (F)     (DEG/KT/KT) (MB)    (FT/S)
NORTHPORT PIER   0707   18     330/ 22     1028.1R
SISTER BAY       0743   16     360/ 25/ 31   N/A
KEWAUNEE LAKESHO 0700   16     340/  4/  7 1027.6R
SHEBOYGAN LAKESH 0700   22      10/ 24/ 27 1029.4R
PORT WASHINGTON  0740   24     320/  7/ 12 1029.5R
MILWAUKEE LAKESH 0700   26     340/ 11/ 16   N/A
KENOSHA   LAKESH 0700   26     350/ 22/ 25 1027.4R
$$

TC  - TEMPERATURE IN CELSIUS
VSB - VISIBILITY IN STATUTE MILES
WCI - WIND CHILL INDEX
HX  - HEAT INDEX



USA.gov is the U.S. government's official web portal to all federal, state and local government web resources and services.